When you browse on this site, cookies collect data to enhance your experience and personalize the content and advertising you see.
Visit our Privacy Policy to learn more. By continuing to use the site, you agree to this use of cookies and data.

Tiempo cada hora Sekondi

Hoy, 22 Septiembre, Martes

Tiempo Temperatura Precipitaciones Viento Presión Humedad
00:00 +25°C° 0 mm 3 mps 760 mmHg 95%
01:00 +25°C° 0 mm 3 mps 759 mmHg 93%
02:00 +25°C° 0 mm 3 mps 758 mmHg 92%
03:00 +25°C° 0 mm 4 mps 758 mmHg 90%
04:00 +25°C° 0 mm 3 mps 758 mmHg 92%
05:00 +25°C° 0 mm 3 mps 759 mmHg 94%
06:00 +24°C° 0 mm 2 mps 759 mmHg 95%
07:00 +25°C° 0.1 mm 2 mps 759 mmHg 90%
08:00 +26°C° 0.1 mm 2 mps 760 mmHg 85%
09:00 +28°C° 0.1 mm 2 mps 760 mmHg 80%
10:00 +28°C° 0.2 mm 3 mps 760 mmHg 78%
11:00 +29°C° 0.2 mm 3 mps 760 mmHg 76%
12:00 +30°C° 0.2 mm 4 mps 759 mmHg 74%
13:00 +30°C° 0.7 mm 4 mps 758 mmHg 75%
14:00 +30°C° 0.7 mm 5 mps 758 mmHg 76%
15:00 +29°C° 0.7 mm 5 mps 757 mmHg 77%
16:00 +28°C° 0.1 mm 5 mps 757 mmHg 80%
17:00 +27°C° 0.1 mm 5 mps 757 mmHg 84%
18:00 +26°C° 0.1 mm 4 mps 758 mmHg 87%
19:00 +26°C° 0 mm 4 mps 758 mmHg 89%
20:00 +26°C° 0 mm 4 mps 759 mmHg 91%
21:00 +25°C° 0 mm 4 mps 759 mmHg 93%
22:00 +25°C° 0 mm 4 mps 759 mmHg 93%
23:00 +25°C° 0 mm 4 mps 759 mmHg 93%

Mañana, 23 Septiembre, Miércoles

Tiempo Temperatura Precipitaciones Viento Presión Humedad
00:00 +25°C° 0 mm 4 mps 759 mmHg 93%
01:00 +25°C° 0 mm 4 mps 759 mmHg 93%
02:00 +25°C° 0 mm 4 mps 758 mmHg 94%
03:00 +25°C° 0 mm 4 mps 758 mmHg 94%
04:00 +25°C° 0 mm 3 mps 758 mmHg 93%
05:00 +25°C° 0 mm 3 mps 758 mmHg 92%
06:00 +25°C° 0 mm 3 mps 759 mmHg 92%
07:00 +26°C° 0 mm 3 mps 759 mmHg 89%
08:00 +27°C° 0 mm 3 mps 760 mmHg 86%
09:00 +27°C° 0 mm 3 mps 760 mmHg 83%
10:00 +28°C° 0.6 mm 3 mps 760 mmHg 81%
11:00 +29°C° 0.6 mm 3 mps 759 mmHg 79%
12:00 +30°C° 0.6 mm 3 mps 759 mmHg 77%
13:00 +30°C° 0.8 mm 4 mps 758 mmHg 78%
14:00 +29°C° 0.8 mm 4 mps 757 mmHg 78%
15:00 +29°C° 0.8 mm 5 mps 757 mmHg 79%
16:00 +28°C° 0.2 mm 5 mps 757 mmHg 82%
17:00 +27°C° 0.2 mm 4 mps 757 mmHg 85%
18:00 +26°C° 0.2 mm 4 mps 758 mmHg 89%
19:00 +26°C° 0 mm 4 mps 758 mmHg 90%
20:00 +26°C° 0 mm 4 mps 759 mmHg 91%
21:00 +26°C° 0 mm 4 mps 760 mmHg 92%
22:00 +26°C° 0 mm 4 mps 760 mmHg 92%
23:00 +26°C° 0 mm 4 mps 760 mmHg 92%

Pasado mañana, 24 Septiembre, Jueves

Tiempo Temperatura Precipitaciones Viento Presión Humedad
00:00 +26°C° 0 mm 4 mps 760 mmHg 92%
01:00 +25°C° 0 mm 3 mps 759 mmHg 93%
02:00 +25°C° 0 mm 3 mps 758 mmHg 94%
03:00 +25°C° 0 mm 2 mps 758 mmHg 95%
04:00 +25°C° 0 mm 2 mps 758 mmHg 94%
05:00 +25°C° 0 mm 2 mps 759 mmHg 94%
06:00 +25°C° 0 mm 2 mps 759 mmHg 93%
07:00 +26°C° 0.1 mm 2 mps 759 mmHg 91%
08:00 +26°C° 0.1 mm 2 mps 760 mmHg 90%
09:00 +27°C° 0.1 mm 2 mps 760 mmHg 88%
10:00 +28°C° 0.1 mm 2 mps 760 mmHg 82%
11:00 +29°C° 0.1 mm 2 mps 759 mmHg 76%
12:00 +30°C° 0.1 mm 2 mps 759 mmHg 71%
13:00 +30°C° 0.1 mm 3 mps 758 mmHg 71%
14:00 +30°C° 0.1 mm 4 mps 758 mmHg 71%
15:00 +30°C° 0.1 mm 5 mps 757 mmHg 71%
16:00 +29°C° 0 mm 4 mps 757 mmHg 75%
17:00 +28°C° 0 mm 4 mps 757 mmHg 80%
18:00 +27°C° 0 mm 4 mps 757 mmHg 84%
19:00 +26°C° 0 mm 4 mps 758 mmHg 88%
20:00 +26°C° 0 mm 3 mps 758 mmHg 91%
21:00 +25°C° 0 mm 3 mps 759 mmHg 94%
22:00 +25°C° 0 mm 3 mps 759 mmHg 95%
23:00 +25°C° 0 mm 3 mps 759 mmHg 96%

25 Septiembre, Viernes

Tiempo Temperatura Precipitaciones Viento Presión Humedad
00:00 +25°C° 0 mm 3 mps 759 mmHg 96%
01:00 +25°C° 0 mm 3 mps 759 mmHg 95%
02:00 +25°C° 0 mm 3 mps 758 mmHg 93%
03:00 +25°C° 0 mm 3 mps 758 mmHg 92%
04:00 +25°C° 0 mm 3 mps 758 mmHg 92%
05:00 +25°C° 0 mm 3 mps 759 mmHg 92%
06:00 +25°C° 0 mm 3 mps 759 mmHg 91%
07:00 +26°C° 0 mm 2 mps 759 mmHg 88%
08:00 +27°C° 0 mm 2 mps 760 mmHg 85%
09:00 +27°C° 0 mm 2 mps 760 mmHg 82%
10:00 +29°C° 0 mm 2 mps 760 mmHg 77%
11:00 +30°C° 0 mm 3 mps 759 mmHg 71%
12:00 +31°C° 0 mm 3 mps 759 mmHg 66%
13:00 +32°C° 0.2 mm 4 mps 759 mmHg 68%
14:00 +30°C° 0.2 mm 4 mps 758 mmHg 69%
15:00 +30°C° 0.2 mm 4 mps 758 mmHg 71%
16:00 +29°C° 0.8 mm 4 mps 758 mmHg 77%
17:00 +28°C° 0.8 mm 4 mps 757 mmHg 83%
18:00 +26°C° 0.8 mm 4 mps 757 mmHg 89%
19:00 +26°C° 0 mm 4 mps 758 mmHg 91%
20:00 +26°C° 0 mm 4 mps 758 mmHg 93%
21:00 +25°C° 0 mm 4 mps 758 mmHg 95%
22:00 +25°C° 0 mm 4 mps 758 mmHg 96%
23:00 +25°C° 0 mm 4 mps 758 mmHg 96%

26 Septiembre, Sábado

Tiempo Temperatura Precipitaciones Viento Presión Humedad
00:00 +25°C° 0 mm 4 mps 758 mmHg 96%
01:00 +25°C° 0.1 mm 4 mps 758 mmHg 96%
02:00 +25°C° 0.1 mm 4 mps 758 mmHg 95%
03:00 +25°C° 0.1 mm 4 mps 758 mmHg 94%
04:00 +25°C° 0.1 mm 4 mps 758 mmHg 95%
05:00 +25°C° 0.1 mm 4 mps 758 mmHg 96%
06:00 +24°C° 0.1 mm 3 mps 758 mmHg 96%
07:00 +26°C° 0.1 mm 3 mps 758 mmHg 91%
08:00 +27°C° 0.1 mm 4 mps 759 mmHg 85%
09:00 +28°C° 0.1 mm 4 mps 759 mmHg 80%
10:00 +28°C° 0.4 mm 4 mps 759 mmHg 80%
11:00 +28°C° 0.4 mm 5 mps 758 mmHg 81%
12:00 +28°C° 0.4 mm 5 mps 758 mmHg 81%
13:00 +29°C° 0.2 mm 5 mps 757 mmHg 78%
14:00 +29°C° 0.2 mm 6 mps 757 mmHg 74%
15:00 +30°C° 0.2 mm 6 mps 756 mmHg 71%
16:00 +29°C° 0 mm 6 mps 756 mmHg 76%
17:00 +28°C° 0 mm 5 mps 756 mmHg 81%
18:00 +26°C° 0 mm 5 mps 756 mmHg 85%
19:00 +26°C° 0 mm 5 mps 757 mmHg 87%
20:00 +26°C° 0 mm 4 mps 758 mmHg 89%
21:00 +25°C° 0 mm 4 mps 758 mmHg 91%
22:00 +25°C° 0.1 mm 4 mps 758 mmHg 91%
23:00 +25°C° 0.1 mm 4 mps 758 mmHg 91%

27 Septiembre, Domingo

Tiempo Temperatura Precipitaciones Viento Presión Humedad
00:00 +26°C° 0.1 mm 4 mps 758 mmHg 90%
01:00 +25°C° 0.1 mm 4 mps 758 mmHg 91%
02:00 +25°C° 0.1 mm 4 mps 757 mmHg 91%
03:00 +25°C° 0.1 mm 4 mps 757 mmHg 91%
04:00 +25°C° 0.1 mm 4 mps 757 mmHg 91%
05:00 +25°C° 0.1 mm 3 mps 757 mmHg 91%
06:00 +25°C° 0.1 mm 3 mps 757 mmHg 92%
07:00 +26°C° 0.1 mm 3 mps 758 mmHg 89%
08:00 +27°C° 0.1 mm 3 mps 758 mmHg 86%
09:00 +27°C° 0.1 mm 3 mps 759 mmHg 83%
10:00 +28°C° 0.2 mm 4 mps 758 mmHg 80%
11:00 +28°C° 0.2 mm 4 mps 758 mmHg 78%
12:00 +29°C° 0.2 mm 4 mps 758 mmHg 75%
13:00 +29°C° 0.1 mm 4 mps 757 mmHg 72%
14:00 +30°C° 0.1 mm 4 mps 757 mmHg 69%
15:00 +32°C° 0.1 mm 5 mps 756 mmHg 66%
16:00 +29°C° 0 mm 4 mps 756 mmHg 71%
17:00 +28°C° 0 mm 4 mps 756 mmHg 77%
18:00 +27°C° 0 mm 4 mps 756 mmHg 82%
19:00 +26°C° 0 mm 4 mps 757 mmHg 85%
20:00 +26°C° 0 mm 3 mps 757 mmHg 89%
21:00 +25°C° 0 mm 3 mps 758 mmHg 92%
22:00 +25°C° 0 mm 3 mps 758 mmHg 93%
23:00 +25°C° 0 mm 4 mps 758 mmHg 93%
Mostrar más